Hourly Data Report for September 23, 2017

All times are specified in Local Standard Time (LST). Add 1 hour to adjust for Daylight Saving Time where and when it is observed.

PETAWAWA AWOS 2
ONTARIO

45°57'00.000" N
77°19'00.000" W
130.10 m
6106396
71625
YWA

Download Data

Hourly Data (September 2017)
Hourly Data Report for September 23, 2017
Temp Definition
°C
Dew Point Temp Definition
°C
Rel Hum Definition
%
Wind Dir Definition
10's deg

Wind Spd Definition
km/h
Visibility Definition
km
Stn Press Definition
kPa
Hmdx Definition


Wind Chill Definition


Weather Definition


TIME
00:00 18.9 16.6 86 13 9 14.5 100.11     LegendNANA
01:00 18.7 15.8 83   0 14.5 100.11     LegendNANA
02:00 18.1 15.7 86 13 4 14.5 100.09     LegendNANA
03:00 15.8 14.9 94 25 4 14.5 100.13     LegendNANA
04:00 16.1 15.2 94   0 14.5 100.12     LegendNANA
05:00 15.6 15.0 96   0 14.5 100.20     LegendNANA
06:00 15.0 14.3 96   0 14.5 100.25     LegendNANA
07:00 16.3 15.3 94   0 14.5 100.26     LegendNANA
08:00 18.4 16.2 87   0 14.5 100.27     LegendNANA
09:00 19.1 16.4 84 7 6 14.5 100.30     LegendNANA
10:00 21.5 17.6 78   0 14.5 100.30 27   LegendNANA
11:00 23.6 19.0 75 7 6 14.5 100.29 30   LegendNANA
12:00 25.6 19.7 70 6 11 14.5 100.28 33   LegendNANA
13:00 27.5 21.3 69 8 7 14.5 100.23 36   LegendNANA
14:00 28.1 20.2 62 11 6 14.5 100.17 36   LegendNANA
15:00 28.6 20.5 62 10 7 14.5 100.09 37   LegendNANA
16:00 28.3 19.7 60 12 7 14.5 100.07 36   LegendNANA
17:00 27.5 19.9 63 12 6 14.5 100.04 35   LegendNANA
18:00 24.8 20.4 77   0 14.5 100.02 33   LegendNANA
19:00 22.7 21.1 91   0 14.5 100.06 31   LegendNANA
20:00 22.1 20.7 92   0 14.5 100.09 30   LegendNANA
21:00 21.3 20.0 92   0 14.5 100.12 29   LegendNANA
22:00 19.6 18.9 96   0 4.8 100.16     LegendNANA
23:00 18.7 18.1 96   0 11.3 100.16     LegendNANA

Notes on Data Quality.

Legend

  • E = Estimated
  • M = Missing
  • NA = Not Available
  • ‡ = Partner data that is not subject to review by the National Climate Archives
Date modified: